Regional Weather Roundup
Issued by NWS

Home | Current Version | Previous Version | Graphics & Text | Print | Product List | Glossary On
Versions: 1 2 3 4 5 6 7 8 9 10 11 12 13 14 15 16 17 18 19 20 21 22 23 24 25 26 27 28 29 30 31 32 33 34 35 36 37 38 39 40 41 42 43 44 45 46 47 48 49 50
000
ASUS43 KLOT 030708
RWRIL

ILLINOIS REGIONAL WEATHER ROUNDUP
NATIONAL WEATHER SERVICE CHICAGO/ROMEOVILLE IL
200 AM CDT MON AUG 03 2015

NOTE: "FAIR" INDICATES FEW OR NO CLOUDS BELOW 12,000 FEET WITH NO
SIGNIFICANT WEATHER AND/OR OBSTRUCTIONS TO VISIBILITY.

* THESE STATIONS ARE NOT UNDER NWS QUALITY CONTROL. THEY ALSO MAY NOT
  REPORT WEATHER SUCH AS PRECIPITATION OR FOG.

ILZ001-002-007-009-015-016-024-030800-
NORTHWEST ILLINOIS

CITY           SKY/WX    TMP DP  RH WIND       PRES   REMARKS
MOLINE         CLEAR     73  63  70 W8        29.79R
STERLING*      MOCLDY    75  68  78 W6        29.75S
SAVANNA*       CLEAR     74  65  74 CALM      29.78R
$$

ILZ003-004-008-010-011-017-018-030800-
NORTH CENTRAL ILLINOIS

CITY           SKY/WX    TMP DP  RH WIND       PRES   REMARKS
ROCKFORD       MOCLDY    72  64  76 CALM      29.78S
FREEPORT*      CLEAR     66  63  88 NW3       29.79S
ROCHELLE*      CLOUDY    72  67  85 CALM      29.79R
DE KALB*       CLOUDY    71  66  86 CALM      29.79S
PERU*          MOCLDY    74  67  78 NE9       29.78R
$$

ILZ005-006-012>014-019>023-030800-
NORTHEAST ILLINOIS

CITY           SKY/WX    TMP DP  RH WIND       PRES   REMARKS
CHICAGO-OHARE  MOCLDY    68  66  93 W5        29.75S
CHICAGO-MIDWAY MOCLDY    69  65  86 W3        29.74F
AURORA         PTCLDY    68  64  87 W3        29.77S
LANSING*       CLOUDY    64  64  97 W3        29.76R
JOLIET*        CLOUDY    70  66  87 CALM      29.76S
WAUKEGAN       MOCLDY    67  65  93 W5        29.74S
DUPAGE AIRPORT MOCLDY    67  64  90 CALM      29.76S
KANKAKEE*      MOCLDY    73  65  75 CALM      29.76F
WHEELING       NOT AVBL
MORRIS*        CLOUDY    70  65  85 CALM      29.76R
ROMEOVILLE*    CLOUDY    67  65  96 N5        29.77R
NORTHERLY ISL    N/A     69  64  84 W3          N/A
$$

LMZ740>746-030800-
SOUTHERN LAKE MICHIGAN

STATION/POSITION SKY/WX   TEMP    WIND        PRES    VSBY  WAVE
                          AIR SEA DIR/SP/G                  HT/PER
                          (F)     (DEG/KT/KT) (MB)    (MI)  (FT/S)
HARRISON CRIB              68     280/  7/  8   N/A
BURNHAM HARBOR             70     260/  5/  7   N/A
CALUMET HARBOR             67     240/  4/  6   N/A
BURNS HARBOR               68     250/  9/ 10 1007.8R
MICHIGAN CITY              67     220/ 16/ 19   N/A
MICHIGAN CITY 6N           71 73  300/ 10/ 14   N/A           4/ 4
ST. JOSEPH                 71 74  320/  8/ 10   N/A           5/ 5
$$

ILZ025>027-034>036-040-047-049-050-058-095>099-030800-
WEST-CENTRAL ILLINOIS

CITY           SKY/WX    TMP DP  RH WIND       PRES   REMARKS
QUINCY         MOCLDY    75  56  51 W5        29.81R
GALESBURG*     CLEAR     71  64  78 NW8       29.81S
MACOMB*        CLEAR     69  65  87 W7        29.82R
JACKSONVILLE*  MOCLDY    72  70  91 CALM      29.80R
PITTSFIELD*    CLOUDY    74  62  66 W3        29.83R
$$

ILZ028>032-037-038-041>044-048-051>054-059>061-030800-
CENTRAL ILLINOIS

CITY           SKY/WX    TMP DP  RH WIND       PRES   REMARKS
PONTIAC        CLOUDY    79  74  86 W7        29.78R HX  82
BLOOMINGTON    CLEAR     76  72  87 W8        29.81R
DECATUR        PTCLDY    74  68  81 SW5       29.81R
PEORIA         CLEAR     79  70  74 NW9       29.80R HX  82
LACON*         MOCLDY    77  65  67 W8        29.77R
LINCOLN*       PTCLDY    76  69  80 CALM      29.79R
SPRINGFIELD    PTCLDY    74  69  85 SW6       29.80R
TAYLORVILLE    MOCLDY    73  68  83 SW6       29.80S
$$

ILZ033-039-045-046-055>057-062-063-030800-
EAST-CENTRAL ILLINOIS

CITY           SKY/WX    TMP DP  RH WIND       PRES   REMARKS
CHAMPAIGN      PTCLDY    73  69  87 SW7       29.80S
DANVILLE*      MOCLDY    75  71  87 SW9G16    29.74F
RANTOUL*       PTCLDY    78  71  77 SW10      29.78S HX  81
MATTOON        PTCLDY    75  71  87 S8        29.80F
PARIS*         CLEAR     74  72  92 SW7       29.81F
$$

ILZ079-100>102-030800-
SOUTHWEST ILLINOIS

CITY           SKY/WX    TMP DP  RH WIND       PRES   REMARKS
ALTON          MOCLDY    79  67  67 SW9       29.82S HX  81
BELLEVILLE     MOCLDY    76  73  88 S6        29.81F
CAHOKIA*       MOCLDY    80  70  71 SW8       29.82F HX  83
SPARTA*        MOCLDY    77  71  80 SW5       29.86S
$$

ILZ064>066-069>071-074>076-080>082-084>086-088>090-092>094-030800-
SOUTH-CENTRAL ILLINOIS

CITY           SKY/WX    TMP DP  RH WIND       PRES   REMARKS
CARBONDALE     CLEAR     74  70  87 S6        29.86F
CAIRO*         PTCLDY    77  71  82 SW3       29.87F
EFFINGHAM*     PTCLDY    76  70  81 S5        29.83F
MARION         CLEAR     79  72  78 SW5       29.87F HX  82
MT. VERNON     MOCLDY    75  66  73 S6        29.85F
CENTRALIA*     MOCLDY    76  69  77 SW6       29.83F
SALEM*         PTCLDY    78  72  81 S5        29.83F HX  80
METROPOLIS*    CLEAR     75  73  92 CALM      29.89S
$$

ILZ067-068-072-073-078-083-087-091-030800-
SOUTHEAST ILLINOIS

CITY           SKY/WX    TMP DP  RH WIND       PRES   REMARKS
LAWRENCEVILLE  PTCLDY    74  71  91 S6        29.84F
FLORA*         PTCLDY    74  70  88 S6        29.84F
FAIRFIELD*     PTCLDY    74  72  92 S5        29.83F
HARRISBURG*    PTCLDY    75  73  93 CALM      29.87F
ROBINSON*      PTCLDY    75  71  87 SW8       29.84S
CARMI*         PTCLDY    73  68  82 S5        29.85F
$$

ABBREVIATIONS USED IN REMARKS
   TC - TEMPERATURE IN CELSIUS
  WCI - WIND CHILL INDEX
   HX - HEAT INDEX
  VSB - VISIBILITY
$$




USA.gov is the U.S. government's official web portal to all federal, state and local government web resources and services.